SBI1027 UACC-UNNT

Flight info

Callsign SBI1027
Flight time 1h 25m
Altitude 35000
Route OLGAS2B OLGAS M75 DAKIN B944 GOLIM GOLIM1P
Aircraft A21N/M-SDE2E3FGHIRWXY/LB1

Departure

Time 2026-04-20 12:48
Airport Nursultan Nazarbayev International Airport (UACC)

Arrival

Time 2026-04-20 14:13
Airport Novosibirsk Tolmachevo Airport (UNNT)
Time Latitude Longitude Altitude Speed Heading
2026-04-20 11:36 51.02664 71.46221 1174 ft 0 kts 314°
2026-04-20 12:35 51.02660 71.46228 1174 ft 2 kts 314°
2026-04-20 12:36 51.02649 71.46245 1174 ft 2 kts 314°
2026-04-20 12:36 51.02639 71.46262 1174 ft 2 kts 315°
2026-04-20 12:36 51.02628 71.46279 1174 ft 2 kts 314°
2026-04-20 12:36 51.02615 71.46289 1174 ft 2 kts
2026-04-20 12:37 51.02600 71.46279 1174 ft 2 kts 49°
2026-04-20 12:37 51.02595 71.46268 1174 ft 1 kts 49°
2026-04-20 12:37 51.02594 71.46267 1174 ft 0 kts 49°
2026-04-20 12:40 51.02596 71.46270 1174 ft 0 kts 49°
2026-04-20 12:40 51.02602 71.46281 1174 ft 1 kts 47°
2026-04-20 12:40 51.02613 71.46300 1174 ft 2 kts 47°
2026-04-20 12:41 51.02629 71.46326 1174 ft 3 kts 46°
2026-04-20 12:41 51.02649 71.46361 1174 ft 4 kts 46°
2026-04-20 12:41 51.02675 71.46403 1174 ft 5 kts 46°
2026-04-20 12:41 51.02695 71.46464 1174 ft 6 kts 77°
2026-04-20 12:42 51.02702 71.46542 1174 ft 7 kts 83°
2026-04-20 12:42 51.02695 71.46629 1174 ft 8 kts 120°
2026-04-20 12:42 51.02654 71.46706 1174 ft 9 kts 126°
2026-04-20 12:42 51.02667 71.46802 1174 ft 10 kts 46°
2026-04-20 12:43 51.02722 71.46889 1174 ft 11 kts 44°
2026-04-20 12:43 51.02782 71.46982 1174 ft 12 kts 44°
2026-04-20 12:43 51.02845 71.47081 1174 ft 13 kts 44°
2026-04-20 12:43 51.02913 71.47187 1174 ft 13 kts 44°
2026-04-20 12:44 51.02982 71.47296 1174 ft 14 kts 44°
2026-04-20 12:44 51.03056 71.47411 1174 ft 14 kts 44°
2026-04-20 12:44 51.03131 71.47530 1174 ft 15 kts 44°
2026-04-20 12:44 51.03209 71.47652 1174 ft 15 kts 44°
2026-04-20 12:45 51.03289 71.47775 1174 ft 16 kts 44°
2026-04-20 12:45 51.03369 71.47899 1174 ft 13 kts 44°
2026-04-20 12:45 51.03417 71.47996 1174 ft 11 kts 66°
2026-04-20 12:45 51.03428 71.48119 1174 ft 11 kts 88°
2026-04-20 12:46 51.03428 71.48229 1174 ft 9 kts 96°
2026-04-20 12:46 51.03396 71.48315 1174 ft 9 kts 142°
2026-04-20 12:46 51.03342 71.48316 1174 ft 8 kts 213°
2026-04-20 12:46 51.03297 71.48251 1174 ft 9 kts 224°
2026-04-20 12:47 51.03248 71.48175 1174 ft 10 kts 224°
2026-04-20 12:47 51.03078 71.47907 1174 ft 70 kts 224°
2026-04-20 12:47 51.02555 71.47081 1174 ft 136 kts 224°
2026-04-20 12:47 51.01769 71.45826 1305 ft 175 kts 225°
2026-04-20 12:48 51.00909 71.44441 1953 ft 179 kts 225°
2026-04-20 12:48 51.00034 71.43012 2696 ft 179 kts 224°
2026-04-20 12:48 50.99158 71.41613 3301 ft 177 kts 223°
2026-04-20 12:48 50.98246 71.40221 3515 ft 189 kts 222°
2026-04-20 12:49 50.97260 71.38735 3744 ft 202 kts 223°
2026-04-20 12:49 50.96217 71.37095 4007 ft 216 kts 224°
2026-04-20 12:49 50.95094 71.35352 4261 ft 232 kts 221°
2026-04-20 12:49 50.93672 71.34006 4543 ft 246 kts 195°
2026-04-20 12:50 50.91913 71.33878 4872 ft 262 kts 168°
2026-04-20 12:50 50.90263 71.35146 5429 ft 270 kts 141°
2026-04-20 12:50 50.88891 71.37281 6147 ft 271 kts 135°
2026-04-20 12:50 50.87714 71.39635 6763 ft 278 kts 117°
2026-04-20 12:51 50.87259 71.42608 7384 ft 285 kts 90°
2026-04-20 12:51 50.87729 71.45667 8013 ft 291 kts 62°
2026-04-20 12:51 50.89031 71.48218 8660 ft 295 kts 45°
2026-04-20 12:51 50.90517 71.50480 9279 ft 298 kts 43°
2026-04-20 12:52 50.92032 71.52752 9878 ft 302 kts 43°
2026-04-20 12:52 50.93541 71.55049 10467 ft 305 kts 44°
2026-04-20 12:52 50.95071 71.57413 11039 ft 308 kts 44°
2026-04-20 12:52 50.96601 71.59802 11611 ft 310 kts 44°
2026-04-20 12:53 50.98172 71.62270 12167 ft 314 kts 44°
2026-04-20 12:53 50.99731 71.64726 12709 ft 316 kts 44°
2026-04-20 12:53 51.01323 71.67247 13226 ft 320 kts 44°
2026-04-20 12:53 51.02904 71.69760 13739 ft 323 kts 44°
2026-04-20 12:54 51.04504 71.72303 14246 ft 325 kts 44°
2026-04-20 12:54 51.06123 71.74873 14748 ft 328 kts 44°
2026-04-20 12:54 51.07734 71.77433 15226 ft 330 kts 44°
2026-04-20 12:54 51.09385 71.80057 15708 ft 333 kts 44°
2026-04-20 12:55 51.11079 71.82734 16038 ft 341 kts 43°
2026-04-20 12:55 51.12801 71.85420 16244 ft 352 kts 43°
2026-04-20 12:55 51.14595 71.88227 16452 ft 363 kts 43°
2026-04-20 12:55 51.16479 71.91193 16661 ft 375 kts 43°
2026-04-20 12:56 51.18362 71.94166 16862 ft 386 kts 43°
2026-04-20 12:56 51.20472 71.96827 17020 ft 393 kts 25°
2026-04-20 12:56 51.23088 71.98146 17205 ft 395 kts
2026-04-20 12:56 51.25864 71.97897 17425 ft 398 kts 347°
2026-04-20 12:57 51.28599 71.97143 17691 ft 406 kts 346°
2026-04-20 12:57 51.31426 71.96331 18090 ft 410 kts 346°
2026-04-20 12:57 51.34239 71.95537 18551 ft 412 kts 347°
2026-04-20 12:57 51.37105 71.94744 18993 ft 414 kts 347°
2026-04-20 12:58 51.39939 71.93969 19417 ft 417 kts 347°
2026-04-20 12:58 51.42845 71.93179 19839 ft 419 kts 347°
2026-04-20 12:58 51.45748 71.92394 20241 ft 421 kts 347°
2026-04-20 12:58 51.48646 71.91612 20631 ft 424 kts 347°
2026-04-20 12:59 51.51476 71.90847 21007 ft 426 kts 347°
2026-04-20 12:59 51.54454 71.90041 21401 ft 428 kts 347°
2026-04-20 12:59 51.57359 71.89254 21768 ft 430 kts 347°
2026-04-20 12:59 51.60292 71.88460 22128 ft 433 kts 347°
2026-04-20 13:00 51.63149 71.87685 22469 ft 435 kts 347°
2026-04-20 13:00 51.66136 71.86874 22818 ft 437 kts 346°
2026-04-20 13:00 51.69010 71.86093 23151 ft 439 kts 346°
2026-04-20 13:00 51.72020 71.85275 23498 ft 441 kts 346°
2026-04-20 13:01 51.75089 71.84438 23837 ft 443 kts 346°
2026-04-20 13:01 51.78194 71.83589 24167 ft 445 kts 346°
2026-04-20 13:01 51.81281 71.82744 24493 ft 447 kts 346°
2026-04-20 13:01 51.84255 71.81929 24811 ft 448 kts 346°
2026-04-20 13:02 51.87427 71.81059 25144 ft 450 kts 346°
2026-04-20 13:02 51.90492 71.80216 25458 ft 451 kts 346°
2026-04-20 13:02 51.93626 71.79353 25773 ft 453 kts 346°
2026-04-20 13:02 51.96790 71.78481 26085 ft 454 kts 346°
2026-04-20 13:03 51.99803 71.77649 26418 ft 454 kts 346°
2026-04-20 13:03 52.02819 71.76816 26833 ft 453 kts 346°
2026-04-20 13:03 52.05949 71.76097 27251 ft 453 kts 351°
2026-04-20 13:03 52.09095 71.75949 27637 ft 455 kts 358°
2026-04-20 13:04 52.12314 71.76428 28024 ft 458 kts
2026-04-20 13:04 52.15458 71.77344 28412 ft 457 kts
2026-04-20 13:04 52.18608 71.78376 28784 ft 456 kts
2026-04-20 13:04 52.21691 71.79403 29130 ft 454 kts
2026-04-20 13:05 52.24792 71.80430 29466 ft 453 kts
2026-04-20 13:05 52.27896 71.81450 29796 ft 452 kts
2026-04-20 13:05 52.30976 71.82455 30112 ft 451 kts
2026-04-20 13:05 52.34088 71.83466 30387 ft 450 kts
2026-04-20 13:06 52.37162 71.84464 30633 ft 451 kts
2026-04-20 13:06 52.40227 71.85460 30884 ft 450 kts
2026-04-20 13:06 52.43306 71.86462 31137 ft 450 kts
2026-04-20 13:06 52.46411 71.87472 31380 ft 450 kts
2026-04-20 13:07 52.49470 71.88467 31609 ft 450 kts
2026-04-20 13:07 52.52541 71.89468 31851 ft 450 kts
2026-04-20 13:07 52.55638 71.90478 32085 ft 449 kts
2026-04-20 13:07 52.58698 71.91476 32310 ft 449 kts
2026-04-20 13:08 52.61803 71.92494 32530 ft 449 kts
2026-04-20 13:08 52.64883 71.93505 32741 ft 449 kts
2026-04-20 13:08 52.67932 71.94451 32954 ft 448 kts
2026-04-20 13:08 52.70996 71.95360 33172 ft 447 kts
2026-04-20 13:09 52.74070 71.96264 33364 ft 447 kts
2026-04-20 13:09 52.77124 71.97161 33512 ft 448 kts
2026-04-20 13:09 52.80284 71.98094 33665 ft 450 kts
2026-04-20 13:09 52.83397 71.99018 33827 ft 450 kts
2026-04-20 13:10 52.86465 71.99931 33988 ft 451 kts
2026-04-20 13:10 52.89570 72.00855 34181 ft 450 kts
2026-04-20 13:10 52.92690 72.01787 34408 ft 449 kts
2026-04-20 13:10 52.95773 72.02708 34565 ft 449 kts
2026-04-20 13:11 52.98887 72.03641 34690 ft 451 kts
2026-04-20 13:11 53.01966 72.04565 34824 ft 451 kts
2026-04-20 13:11 53.05030 72.05499 34965 ft 452 kts
2026-04-20 13:11 53.08158 72.06453 35115 ft 452 kts
2026-04-20 13:12 53.11185 72.07374 35262 ft 452 kts
2026-04-20 13:12 53.14304 72.08321 35414 ft 452 kts
2026-04-20 13:12 53.17444 72.09274 35571 ft 452 kts
2026-04-20 13:12 53.20671 72.10255 35732 ft 451 kts
2026-04-20 13:13 53.23757 72.11195 35882 ft 451 kts
2026-04-20 13:13 53.26837 72.12133 36014 ft 451 kts
2026-04-20 13:13 53.29956 72.13083 36046 ft 452 kts
2026-04-20 13:14 53.35999 72.14932 36052 ft 452 kts
2026-04-20 13:14 53.42180 72.16827 36046 ft 452 kts
2026-04-20 13:15 53.48375 72.18733 36038 ft 452 kts
2026-04-20 13:15 53.54599 72.20650 36032 ft 452 kts
2026-04-20 13:16 53.60807 72.22572 36030 ft 452 kts
2026-04-20 13:16 53.66966 72.24520 36029 ft 453 kts
2026-04-20 13:17 53.73184 72.26550 36030 ft 453 kts
2026-04-20 13:17 53.79446 72.28590 36030 ft 454 kts
2026-04-20 13:18 53.85632 72.30605 36030 ft 453 kts
2026-04-20 13:18 53.91833 72.32628 36029 ft 453 kts
2026-04-20 13:19 53.98069 72.34666 36028 ft 453 kts
2026-04-20 13:19 54.04236 72.36706 36020 ft 454 kts
2026-04-20 13:20 54.10248 72.40685 36012 ft 473 kts 24°
2026-04-20 13:20 54.15428 72.48083 36009 ft 491 kts 44°
2026-04-20 13:20 54.17445 72.52899 36007 ft 496 kts 55°
2026-04-20 13:21 54.18950 72.58245 36006 ft 502 kts 66°
2026-04-20 13:21 54.20981 72.69904 36004 ft 505 kts 72°
2026-04-20 13:22 54.22832 72.81620 36003 ft 506 kts 72°
2026-04-20 13:22 54.24740 72.93306 36004 ft 506 kts 71°
2026-04-20 13:23 54.26676 73.05003 36003 ft 505 kts 71°
2026-04-20 13:23 54.28600 73.16646 36003 ft 505 kts 71°
2026-04-20 13:24 54.30536 73.28449 36003 ft 505 kts 71°
2026-04-20 13:24 54.32428 73.40056 36004 ft 505 kts 70°
2026-04-20 13:25 54.34298 73.51621 36003 ft 505 kts 70°
2026-04-20 13:25 54.36187 73.63356 36003 ft 505 kts 70°
2026-04-20 13:26 54.37957 73.74438 36003 ft 506 kts 71°
2026-04-20 13:26 54.39827 73.86277 36003 ft 505 kts 71°
2026-04-20 13:27 54.41615 73.97690 36003 ft 505 kts 71°
2026-04-20 13:27 54.43454 74.09497 36008 ft 505 kts 71°
2026-04-20 13:28 54.45277 74.21255 36018 ft 505 kts 71°
2026-04-20 13:28 54.47080 74.32958 36024 ft 504 kts 71°
2026-04-20 13:29 54.48885 74.44760 36026 ft 505 kts 71°
2026-04-20 13:29 54.50655 74.56423 36028 ft 505 kts 71°
2026-04-20 13:30 54.52432 74.68219 36025 ft 506 kts 72°
2026-04-20 13:30 54.54192 74.80017 36028 ft 505 kts 72°
2026-04-20 13:31 54.55947 74.91851 36029 ft 505 kts 71°
2026-04-20 13:31 54.57654 75.03436 36033 ft 505 kts 71°
2026-04-20 13:32 54.59375 75.15179 36042 ft 505 kts 71°
2026-04-20 13:32 54.61111 75.27135 36047 ft 504 kts 71°
2026-04-20 13:33 54.62805 75.38864 36048 ft 504 kts 71°
2026-04-20 13:33 54.64498 75.50666 36046 ft 503 kts 71°
2026-04-20 13:34 54.66174 75.62460 36043 ft 503 kts 71°
2026-04-20 13:34 54.67839 75.74350 36039 ft 504 kts 72°
2026-04-20 13:35 54.69482 75.86168 36037 ft 503 kts 72°
2026-04-20 13:35 54.71116 75.97955 36038 ft 503 kts 72°
2026-04-20 13:36 54.72742 76.09776 36044 ft 502 kts 72°
2026-04-20 13:36 54.74350 76.21525 36050 ft 503 kts 72°
2026-04-20 13:37 54.75920 76.33083 36054 ft 503 kts 72°
2026-04-20 13:37 54.77514 76.44923 36056 ft 503 kts 72°
2026-04-20 13:38 54.79103 76.56818 36056 ft 504 kts 72°
2026-04-20 13:38 54.80676 76.68693 36053 ft 504 kts 72°
2026-04-20 13:39 54.82239 76.80627 36056 ft 505 kts 72°
2026-04-20 13:39 54.83777 76.92458 36059 ft 504 kts 72°
2026-04-20 13:40 54.85343 77.04565 36069 ft 504 kts 72°
2026-04-20 13:40 54.86874 77.16500 36077 ft 504 kts 72°
2026-04-20 13:41 54.88410 77.28571 36081 ft 504 kts 72°
2026-04-20 13:41 54.89912 77.40453 36082 ft 504 kts 72°
2026-04-20 13:42 54.91411 77.52406 36082 ft 504 kts 72°
2026-04-20 13:42 54.93270 77.70602 36082 ft 508 kts 79°
2026-04-20 13:43 54.94099 77.82941 36083 ft 509 kts 79°
2026-04-20 13:43 54.94919 77.95275 36083 ft 508 kts 79°
2026-04-20 13:44 54.95737 78.07522 36083 ft 508 kts 78°
2026-04-20 13:44 54.96558 78.19856 36082 ft 509 kts 78°
2026-04-20 13:45 54.97361 78.32125 36082 ft 508 kts 78°
2026-04-20 13:45 54.98157 78.44443 35902 ft 509 kts 78°
2026-04-20 13:46 54.98550 78.50611 35531 ft 506 kts 78°
2026-04-20 13:46 54.98936 78.56723 34946 ft 507 kts 78°
2026-04-20 13:46 54.99320 78.62844 34248 ft 509 kts 78°
2026-04-20 13:46 54.99709 78.69089 33499 ft 511 kts 79°
2026-04-20 13:47 55.00087 78.75192 32782 ft 513 kts 79°
2026-04-20 13:47 55.00476 78.81564 32057 ft 514 kts 79°
2026-04-20 13:47 55.00854 78.87811 31327 ft 515 kts 80°
2026-04-20 13:47 55.01228 78.94047 30588 ft 516 kts 80°
2026-04-20 13:48 55.01601 79.00314 29858 ft 517 kts 80°
2026-04-20 13:48 55.01965 79.06494 29139 ft 517 kts 80°
2026-04-20 13:48 55.02334 79.12817 28449 ft 516 kts 80°
2026-04-20 13:48 55.02694 79.19037 27740 ft 515 kts 81°
2026-04-20 13:49 55.03054 79.25295 27013 ft 514 kts 81°
2026-04-20 13:49 55.03411 79.31561 26273 ft 514 kts 81°
2026-04-20 13:49 55.03763 79.37780 25558 ft 512 kts 81°
2026-04-20 13:49 55.04104 79.43881 25134 ft 503 kts 81°
2026-04-20 13:50 55.04441 79.49990 24667 ft 497 kts 81°
2026-04-20 13:50 55.04773 79.55995 24164 ft 491 kts 81°
2026-04-20 13:50 55.05096 79.61871 23670 ft 486 kts 81°
2026-04-20 13:50 55.05417 79.67742 23147 ft 481 kts 82°
2026-04-20 13:51 55.05735 79.73628 22624 ft 477 kts 82°
2026-04-20 13:51 55.06037 79.79331 22122 ft 472 kts 82°
2026-04-20 13:51 55.06333 79.85037 21625 ft 468 kts 82°
2026-04-20 13:51 55.06622 79.90709 21134 ft 463 kts 82°
2026-04-20 13:52 55.06904 79.96274 20658 ft 459 kts 82°
2026-04-20 13:52 55.07190 80.01889 20175 ft 454 kts 82°
2026-04-20 13:52 55.07470 80.07404 19697 ft 450 kts 82°
2026-04-20 13:52 55.07746 80.12832 19230 ft 446 kts 83°
2026-04-20 13:53 55.08015 80.18190 18767 ft 442 kts 83°
2026-04-20 13:53 55.08284 80.23575 18303 ft 438 kts 83°
2026-04-20 13:53 55.08544 80.28837 17844 ft 434 kts 83°
2026-04-20 13:53 55.08798 80.34038 17365 ft 431 kts 83°
2026-04-20 13:54 55.09053 80.39324 16873 ft 427 kts 83°
2026-04-20 13:54 55.09299 80.44467 16384 ft 424 kts 83°
2026-04-20 13:54 55.09544 80.49630 15876 ft 421 kts 83°
2026-04-20 13:54 55.09788 80.54761 15376 ft 418 kts 83°
2026-04-20 13:55 55.10027 80.59852 14905 ft 414 kts 83°
2026-04-20 13:55 55.10274 80.64934 14532 ft 406 kts 82°
2026-04-20 13:55 55.10511 80.69789 13987 ft 395 kts 83°
2026-04-20 13:55 55.10740 80.74618 13460 ft 381 kts 84°
2026-04-20 13:56 55.10953 80.79280 12954 ft 370 kts 84°
2026-04-20 13:56 55.11155 80.83810 12473 ft 361 kts 84°
2026-04-20 13:56 55.11349 80.88178 12002 ft 350 kts 84°
2026-04-20 13:56 55.11525 80.92458 11587 ft 338 kts 86°
2026-04-20 13:57 55.11541 80.96587 11188 ft 328 kts 92°
2026-04-20 13:57 55.11363 81.00378 10836 ft 319 kts 97°
2026-04-20 13:57 55.11018 81.04227 10657 ft 317 kts 100°
2026-04-20 13:57 55.10635 81.08053 10555 ft 317 kts 100°
2026-04-20 13:58 55.10249 81.11862 10427 ft 313 kts 100°
2026-04-20 13:58 55.09873 81.15599 10326 ft 310 kts 100°
2026-04-20 13:58 55.09504 81.19286 10271 ft 310 kts 100°
2026-04-20 13:58 55.09129 81.23055 10238 ft 308 kts 100°
2026-04-20 13:59 55.08765 81.26719 10086 ft 302 kts 100°
2026-04-20 13:59 55.08408 81.30317 9920 ft 302 kts 100°
2026-04-20 13:59 55.08046 81.33948 9774 ft 301 kts 101°
2026-04-20 13:59 55.07692 81.37502 9427 ft 294 kts 101°
2026-04-20 14:00 55.07333 81.41079 8966 ft 295 kts 101°
2026-04-20 14:00 55.06973 81.44659 8643 ft 294 kts 101°
2026-04-20 14:00 55.06625 81.48093 8364 ft 292 kts 101°
2026-04-20 14:00 55.06271 81.51583 8074 ft 290 kts 101°
2026-04-20 14:01 55.05916 81.55070 7791 ft 288 kts 101°
2026-04-20 14:01 55.05571 81.58467 7506 ft 287 kts 101°
2026-04-20 14:01 55.05217 81.61957 7240 ft 284 kts 101°
2026-04-20 14:01 55.04872 81.65340 7018 ft 278 kts 102°
2026-04-20 14:02 55.04533 81.68664 6756 ft 274 kts 102°
2026-04-20 14:02 55.04199 81.71928 6500 ft 270 kts 102°
2026-04-20 14:02 55.03869 81.75148 6237 ft 265 kts 102°
2026-04-20 14:02 55.03545 81.78268 5917 ft 260 kts 102°
2026-04-20 14:03 55.03222 81.81381 5624 ft 259 kts 102°
2026-04-20 14:03 55.02898 81.84492 5367 ft 256 kts 102°
2026-04-20 14:03 55.02580 81.87547 5109 ft 254 kts 102°
2026-04-20 14:03 55.02266 81.90552 4850 ft 251 kts 102°
2026-04-20 14:04 55.01952 81.93546 4612 ft 249 kts 102°
2026-04-20 14:04 55.01640 81.96519 4362 ft 247 kts 102°
2026-04-20 14:04 55.01327 81.99483 4108 ft 244 kts 102°
2026-04-20 14:04 55.01024 82.02350 3872 ft 241 kts 102°
2026-04-20 14:05 55.00720 82.05226 3629 ft 239 kts 102°
2026-04-20 14:05 55.00421 82.08046 3386 ft 236 kts 102°
2026-04-20 14:05 55.00129 82.10793 3299 ft 225 kts 102°
2026-04-20 14:05 54.99847 82.13445 3255 ft 218 kts 102°
2026-04-20 14:06 54.99568 82.16054 3172 ft 222 kts 102°
2026-04-20 14:06 54.99298 82.18574 3035 ft 199 kts 102°
2026-04-20 14:06 54.99060 82.20820 2891 ft 176 kts 102°
2026-04-20 14:06 54.98850 82.22803 2772 ft 161 kts 102°
2026-04-20 14:07 54.98642 82.24740 2676 ft 162 kts 102°
2026-04-20 14:07 54.98432 82.26669 2417 ft 164 kts 102°
2026-04-20 14:07 54.98227 82.28577 2174 ft 158 kts 102°
2026-04-20 14:07 54.98085 82.30485 2015 ft 158 kts 89°
2026-04-20 14:08 54.98207 82.32414 2011 ft 160 kts 82°
2026-04-20 14:08 54.98396 82.34324 2024 ft 159 kts 81°
2026-04-20 14:08 54.98589 82.36239 2003 ft 159 kts 80°
2026-04-20 14:08 54.98775 82.38121 2000 ft 158 kts 80°
2026-04-20 14:09 54.98957 82.40005 1998 ft 158 kts 81°
2026-04-20 14:09 54.99139 82.41916 1998 ft 158 kts 81°
2026-04-20 14:09 54.99317 82.43813 1997 ft 157 kts 81°
2026-04-20 14:09 54.99482 82.45574 1981 ft 149 kts 81°
2026-04-20 14:10 54.99648 82.47356 1997 ft 150 kts 81°
2026-04-20 14:10 54.99821 82.49127 1861 ft 150 kts 83°
2026-04-20 14:10 54.99978 82.50806 1676 ft 146 kts 82°
2026-04-20 14:10 55.00133 82.52545 1487 ft 144 kts 82°
2026-04-20 14:11 55.00283 82.54254 1299 ft 142 kts 81°
2026-04-20 14:11 55.00432 82.55963 1107 ft 141 kts 81°
2026-04-20 14:11 55.00575 82.57626 916 ft 142 kts 79°
2026-04-20 14:11 55.00735 82.59348 722 ft 141 kts 79°
2026-04-20 14:12 55.00888 82.61023 577 ft 141 kts 79°
2026-04-20 14:12 55.01031 82.62720 402 ft 141 kts 79°
2026-04-20 14:12 55.01170 82.64247 374 ft 110 kts 80°
2026-04-20 14:12 55.01258 82.65215 374 ft 59 kts 84°
2026-04-20 14:13 55.01305 82.65815 374 ft 43 kts 79°
2026-04-20 14:13 55.01349 82.66248 374 ft 33 kts 80°
2026-04-20 14:13 55.01371 82.66505 374 ft 12 kts 92°
2026-04-20 14:13 55.01325 82.66602 374 ft 9 kts 164°
2026-04-20 14:14 55.01283 82.66616 374 ft 4 kts 173°
2026-04-20 14:14 55.01261 82.66621 374 ft 2 kts 173°
2026-04-20 14:14 55.01243 82.66625 374 ft 2 kts 172°
2026-04-20 14:14 55.01222 82.66631 374 ft 3 kts 172°
2026-04-20 14:15 55.01217 82.66631 374 ft 0 kts 172°
2026-04-20 14:15 55.01205 82.66634 374 ft 2 kts 172°
2026-04-20 14:15 55.01184 82.66640 374 ft 3 kts 170°
2026-04-20 14:15 55.01152 82.66651 374 ft 5 kts 169°
2026-04-20 14:16 55.01115 82.66665 374 ft 5 kts 157°
2026-04-20 14:16 55.01096 82.66724 374 ft 6 kts 95°
2026-04-20 14:16 55.01091 82.66818 374 ft 8 kts 98°
2026-04-20 14:16 55.01082 82.66906 374 ft 2 kts 101°
2026-04-20 14:17 55.01080 82.66941 374 ft 3 kts 88°
2026-04-20 14:17 55.01084 82.66995 374 ft 5 kts 82°
2026-04-20 14:17 55.01090 82.67065 374 ft 6 kts 82°
2026-04-20 14:17 55.01083 82.67125 374 ft 5 kts 139°
2026-04-20 14:18 55.01051 82.67142 374 ft 2 kts 169°
2026-04-20 14:18 55.01042 82.67145 374 ft 0 kts 169°